Regional Weather Roundup
Issued by NWS

Home | Current Version | Previous Version | Graphics & Text | Print | Product List | Glossary On
Versions: 1 2 3 4 5 6 7 8 9 10 11 12 13 14 15 16 17 18 19 20 21 22 23 24 25 26 27 28 29 30 31 32 33 34 35 36 37 38 39 40 41 42 43 44 45 46 47 48 49 50
000
ASUS43 KLSX 291607
RWRMO

WEATHER SUMMARY FOR MISSOURI
NATIONAL WEATHER SERVICE SPRINGFIELD MO
1100 AM CDT THU SEP 29 2016

NOTE: "FAIR" INDICATES FEW OR NO CLOUDS BELOW 12,000 FEET WITH NO
       SIGNIFICANT WEATHER AND/OR OBSTRUCTIONS TO VISIBILITY.
       CURRENT SKY AND/OR WEATHER CONDITIONS ARE NOT AVAILABLE FOR
       CHILLICOTHE AND FARMINGTON.

MOZ001>031-035>038-043-044-053-054-291700-
...NORTHERN AND WESTERN MISSOURI...

CITY           SKY/WX    TMP DP  RH WIND       PRES   REMARKS
KANSAS CTY INT MOSUNNY   63  51  65 N12       30.39R
KANSAS C DTWN  SUNNY     64  51  62 NW6       30.38R
LEE`S SUMMIT   SUNNY     62  51  67 N12       30.37S
ST JOSEPH      SUNNY     63  51  65 VRB5      30.40S
CHILLICOTHE      N/A     65  52  62 N9        30.37R
KIRKSVILLE     SUNNY     65  52  62 N15       30.33S

$$
MOZ066>068-077>081-088>096-101>105-291700-
...SOUTHWEST MISSOURI...

CITY           SKY/WX    TMP DP  RH WIND       PRES   REMARKS
SPRINGFIELD    SUNNY     63  49  60 N15       30.31R
JOPLIN         SUNNY     62  52  69 N7        30.36R
BRANSON        MOSUNNY   61  48  63 N12       30.31R

$$
MOZ032>034-039>042-045>050-055>058-069>072-291700-
...CENTRAL MISSOURI...

CITY           SKY/WX    TMP DP  RH WIND       PRES   REMARKS
COLUMBIA       SUNNY     66  52  60 N14       30.28S
JEFFERSON CITY SUNNY     65  52  62 VRB7      30.27S
ROLLA          SUNNY     62  52  69 N16       30.25S
SEDALIA        SUNNY     66  51  58 NW12      30.34R
WHITEMAN AFB   SUNNY     64  52  66 N9        30.33S
OSAGE BEACH    SUNNY     65  48  54 N8        30.30S

$$
MOZ051-052-059>065-291700-
...EAST CENTRAL MISSOURI...

CITY           SKY/WX    TMP DP  RH WIND       PRES   REMARKS
ST LOUIS INTL  CLOUDY    59  52  77 NW14      30.21R
SPIRIT OF STL  CLOUDY    58  53  84 NW14      30.22R
ST CHARLES     CLOUDY    59  54  83 NW9       30.21R

$$
MOZ072>076-082>087-097>100-106>115-291700-
...SOUTH CENTRAL AND SOUTHEAST MISSOURI...

CITY           SKY/WX    TMP DP  RH WIND       PRES   REMARKS
CAPE GIRARDEAU CLOUDY    59  51  75 NW13G21   30.16R
FARMINGTON     CLOUDY    56  51  84 NW14G22   30.21R
POPLAR BLUFF   SUNNY     68  54  60 NW12      30.17R
WEST PLAINS    SUNNY     67  47  48 N14G22    30.26R

$$



USA.gov is the U.S. government's official web portal to all federal, state and local government web resources and services.